Location: Burland Observatory
(39.4088°N, 105.4217°W)
Time: 23:38:00
(UTC-07:00)

S-56A Canister/Altair - Visible Passes

Search period start: 10 December 2019 00:00
Search period end: 20 December 2019 00:00
Orbit: 633 x 2499 km, 38.9° (Epoch: 10 December)

Date Brightness Start Highest point End Pass type
(mag) Time Alt. Az. Time Alt. Az. Time Alt. Az.
10 Dec 12.2 06:44:26 10° SSE 06:50:25 15° SE 06:56:56 10° E visible
10 Dec 11.1 17:07:58 10° W 17:18:04 28° SW 17:25:45 10° S visible
11 Dec 12.2 06:14:30 10° SE 06:17:29 11° ESE 06:20:37 10° ESE visible
13 Dec 11.9 17:38:24 10° WSW 17:41:58 12° WSW 17:45:14 10° SW visible
14 Dec 11.5 06:32:27 10° S 06:41:22 27° SE 06:52:17 10° E visible
14 Dec 11.9 17:02:36 10° W 17:09:11 16° SW 17:14:54 10° SSW visible
15 Dec 11.5 06:00:33 10° S 06:08:24 23° SE 06:17:57 10° E visible
16 Dec 11.5 05:28:57 10° SSE 05:35:31 18° SE 05:43:23 10° E visible
17 Dec 11.5 04:57:50 10° SSE 05:02:44 14° ESE 05:08:21 10° E visible
18 Dec 11.6 04:28:21 10° SE 04:30:01 10° ESE 04:31:45 10° ESE visible
18 Dec 10.8 06:23:16 10° SSW 06:32:41 42° SE 06:45:23 10° ENE visible
19 Dec 10.8 05:51:01 10° SSW 05:59:39 37° SE 06:11:24 10° ENE visible
